�������l�o���
Date,Time,MP-1(��Sv/h),MP-2(��Sv/h),MP-3(��Sv/h),MP-4(��Sv/h),MP-5(��Sv/h),MP-6(��Sv/h),MP-7(��Sv/h),����,����(m/s),���J
2023/09/17,00:00,0.145,0.130,0.212,0.203,0.207,0.117,0.076,�k�k��,1.6,��
2023/09/17,00:10,0.145,0.130,0.214,0.202,0.211,0.118,0.076,�k,1.6,��
2023/09/17,00:20,0.148,0.128,0.217,0.203,0.210,0.119,0.076,-,CALM,��
2023/09/17,00:30,0.148,0.130,0.214,0.205,0.208,0.118,0.076,�k�k��,0.7,��
2023/09/17,00:40,0.146,0.130,0.213,0.203,0.208,0.118,0.076,�k�k��,1.3,��
2023/09/17,00:50,0.146,0.130,0.215,0.201,0.210,0.117,0.076,�k,1.7,��
2023/09/17,01:00,0.148,0.131,0.216,0.204,0.210,0.118,0.076,�k,1.5,��
2023/09/17,01:10,0.148,0.131,0.213,0.204,0.208,0.118,0.077,�k�k��,1.7,��
2023/09/17,01:20,0.146,0.130,0.214,0.204,0.209,0.118,0.076,�k�k��,2.8,��
2023/09/17,01:30,0.146,0.129,0.217,0.203,0.212,0.119,0.077,�k�k��,3.7,��
2023/09/17,01:40,0.147,0.131,0.216,0.205,0.210,0.118,0.077,�k�k��,3.2,��
2023/09/17,01:50,0.147,0.131,0.213,0.204,0.208,0.119,0.076,�k,3.7,��
2023/09/17,02:00,0.145,0.130,0.215,0.203,0.209,0.117,0.076,�k,4.0,��
2023/09/17,02:10,0.146,0.129,0.216,0.204,0.211,0.118,0.076,�k�k��,4.6,��
2023/09/17,02:20,0.148,0.130,0.215,0.205,0.209,0.119,0.076,�k�k��,5.4,��
2023/09/17,02:30,0.148,0.131,0.214,0.204,0.208,0.119,0.077,�k�k��,5.4,��
2023/09/17,02:40,0.146,0.130,0.218,0.202,0.211,0.118,0.076,�k�k��,5.9,��
2023/09/17,02:50,0.145,0.129,0.215,0.205,0.211,0.119,0.077,�k�k��,5.3,��
2023/09/17,03:00,0.148,0.130,0.213,0.205,0.210,0.120,0.076,�k�k��,5.0,��
2023/09/17,03:10,0.147,0.130,0.217,0.201,0.207,0.119,0.077,�k�k��,4.1,��
2023/09/17,03:20,0.147,0.130,0.216,0.202,0.212,0.118,0.077,�k�k��,4.1,��
2023/09/17,03:30,0.145,0.129,0.214,0.206,0.211,0.118,0.076,�k�k��,4.2,��
2023/09/17,03:40,0.147,0.130,0.212,0.204,0.208,0.118,0.077,�k�k��,4.3,��
2023/09/17,03:50,0.148,0.130,0.216,0.201,0.207,0.119,0.077,�k�k��,3.9,��
2023/09/17,04:00,0.146,0.129,0.214,0.202,0.210,0.118,0.076,�k�k��,3.5,��
2023/09/17,04:10,0.145,0.128,0.213,0.205,0.211,0.118,0.076,�k�k��,3.6,��
2023/09/17,04:20,0.145,0.130,0.213,0.203,0.208,0.120,0.077,�k��,3.2,��
2023/09/17,04:30,0.148,0.129,0.215,0.202,0.206,0.118,0.076,�k�k��,3.3,��
2023/09/17,04:40,0.146,0.130,0.214,0.202,0.209,0.117,0.075,�k�k��,3.5,��
2023/09/17,04:50,0.144,0.128,0.214,0.205,0.210,0.117,0.076,�k�k��,3.1,��
2023/09/17,05:00,0.145,0.130,0.213,0.203,0.209,0.118,0.076,�k�k��,2.8,��
2023/09/17,05:10,0.148,0.130,0.215,0.202,0.207,0.118,0.076,�k�k��,2.6,��
2023/09/17,05:20,0.146,0.130,0.214,0.201,0.209,0.116,0.076,�k�k��,2.9,��
2023/09/17,05:30,0.145,0.129,0.212,0.204,0.210,0.117,0.076,�k�k��,2.6,��
2023/09/17,05:40,0.146,0.130,0.215,0.203,0.207,0.118,0.076,�k��,3.0,��
2023/09/17,05:50,0.148,0.129,0.215,0.200,0.206,0.117,0.076,�k��,2.2,��
2023/09/17,06:00,0.147,0.128,0.213,0.203,0.210,0.117,0.075,�k�k��,2.1,��
2023/09/17,06:10,0.143,0.130,0.214,0.203,0.209,0.119,0.076,�k�k��,1.9,��
2023/09/17,06:20,0.147,0.129,0.215,0.202,0.206,0.118,0.076,�k�k��,1.2,��
2023/09/17,06:30,0.147,0.130,0.215,0.200,0.206,0.117,0.075,�k,2.1,��
2023/09/17,06:40,0.146,0.128,0.212,0.202,0.208,0.117,0.075,�k,2.7,��
2023/09/17,06:50,0.145,0.129,0.212,0.204,0.210,0.118,0.075,�k��,1.2,��
2023/09/17,07:00,0.144,0.130,0.214,0.202,0.210,0.118,0.076,�k�k��,2.4,��
2023/09/17,07:10,0.145,0.130,0.216,0.202,0.208,0.118,0.075,�k��,2.4,��
2023/09/17,07:20,0.147,0.129,0.214,0.201,0.207,0.117,0.075,�k�k��,2.3,��
2023/09/17,07:30,0.145,0.128,0.214,0.200,0.205,0.117,0.075,�k,1.5,��
2023/09/17,07:40,0.145,0.128,0.213,0.202,0.206,0.117,0.076,�k��,1.0,��
2023/09/17,07:50,0.145,0.128,0.213,0.200,0.206,0.118,0.076,�k��,1.5,�L
2023/09/17,08:00,0.145,0.128,0.213,0.201,0.207,0.118,0.076,���k��,1.2,��
2023/09/17,08:10,0.145,0.128,0.212,0.202,0.207,0.118,0.075,�k�k��,1.5,��
2023/09/17,08:20,0.146,0.128,0.212,0.202,0.209,0.118,0.076,�k,1.4,��
2023/09/17,08:30,0.145,0.127,0.211,0.203,0.213,0.117,0.075,�k,2.5,��
2023/09/17,08:40,0.144,0.127,0.212,0.205,0.210,0.117,0.075,�k,2.5,��
2023/09/17,08:50,0.144,0.127,0.211,0.202,0.209,0.117,0.075,�k,1.7,��
2023/09/17,09:00,0.145,0.128,0.212,0.202,0.208,0.117,0.075,�k�k��,1.6,��
2023/09/17,09:10,0.144,0.128,0.212,0.201,0.207,0.117,0.074,�k�k��,2.0,��
2023/09/17,09:20,0.144,0.127,0.213,0.202,0.206,0.117,0.075,�k�k��,2.3,��
2023/09/17,09:30,0.145,0.128,0.212,0.202,0.207,0.116,0.075,�k��,1.9,��
2023/09/17,09:40,0.144,0.128,0.212,0.201,0.206,0.117,0.075,�k�k��,1.0,��
2023/09/17,09:50,0.145,0.129,0.212,0.201,0.207,0.117,0.075,�k��,1.0,��
2023/09/17,10:00,0.144,0.128,0.212,0.201,0.206,0.117,0.075,�k�k��,1.0,��
2023/09/17,10:10,0.145,0.127,0.213,0.201,0.206,0.117,0.075,�k��,1.0,�L
2023/09/17,10:20,0.144,0.126,0.212,0.201,0.207,0.117,0.075,���k��,0.7,�L
2023/09/17,10:30,0.144,0.128,0.213,0.201,0.206,0.117,0.075,�k��,0.8,�L
2023/09/17,10:40,0.144,0.128,0.212,0.200,0.207,0.116,0.075,���쓌,0.8,��
2023/09/17,10:50,0.145,0.129,0.213,0.201,0.208,0.118,0.075,���쓌,1.2,��
2023/09/17,11:00,0.144,0.129,0.213,0.202,0.209,0.117,0.075,��,1.3,��
2023/09/17,11:10,0.145,0.128,0.215,0.202,0.208,0.118,0.075,���쓌,1.7,��
2023/09/17,11:20,0.145,0.129,0.214,0.203,0.208,0.118,0.076,�쓌,1.4,��
2023/09/17,11:30,0.146,0.129,0.214,0.203,0.209,0.118,0.075,���쓌,1.7,��
2023/09/17,11:40,0.145,0.129,0.215,0.203,0.207,0.117,0.075,���쓌,1.5,��
2023/09/17,11:50,0.144,0.129,0.215,0.202,0.209,0.117,0.075,��,2.0,��
2023/09/17,12:00,0.147,0.129,0.215,0.202,0.209,0.118,0.075,���쓌,1.7,��
2023/09/17,12:10,0.146,0.128,0.215,0.202,0.208,0.116,0.075,���쓌,2.1,��
2023/09/17,12:20,0.146,0.128,0.214,0.202,0.208,0.116,0.075,���쓌,2.0,��
2023/09/17,12:30,0.146,0.129,0.214,0.203,0.208,0.117,0.075,�쓌,2.4,��
2023/09/17,12:40,0.145,0.129,0.214,0.201,0.208,0.118,0.075,��쓌,2.7,��
2023/09/17,12:50,0.145,0.129,0.214,0.203,0.208,0.117,0.075,�쓌,3.2,��
2023/09/17,13:00,0.146,0.129,0.214,0.203,0.208,0.117,0.076,�쓌,3.7,��
2023/09/17,13:10,0.147,0.129,0.213,0.203,0.208,0.117,0.075,��쓌,2.8,��
2023/09/17,13:20,0.146,0.129,0.213,0.202,0.208,0.117,0.075,��쓌,3.4,�L
2023/09/17,13:30,0.145,0.129,0.213,0.202,0.207,0.117,0.075,��,3.9,�L
2023/09/17,13:40,0.147,0.129,0.214,0.201,0.207,0.117,0.075,��쓌,3.9,��
2023/09/17,13:50,0.146,0.129,0.214,0.203,0.208,0.116,0.075,��쓌,4.4,��
2023/09/17,14:00,0.146,0.130,0.214,0.204,0.209,0.118,0.075,��쓌,4.7,��
2023/09/17,14:10,0.147,0.129,0.214,0.203,0.209,0.117,0.075,��쓌,5.0,��
2023/09/17,14:20,0.145,0.129,0.214,0.204,0.208,0.117,0.075,��쓌,4.6,��
2023/09/17,14:30,0.146,0.130,0.214,0.202,0.209,0.117,0.075,��,5.4,��
2023/09/17,14:40,0.146,0.129,0.215,0.202,0.208,0.117,0.075,��,5.7,��
2023/09/17,14:50,0.146,0.129,0.213,0.203,0.209,0.117,0.074,��,5.9,��
2023/09/17,15:00,0.145,0.128,0.214,0.203,0.207,0.118,0.074,��,7.8,��
2023/09/17,15:10,0.145,0.128,0.212,0.202,0.208,0.117,0.075,��,7.2,��
2023/09/17,15:20,0.145,0.128,0.214,0.202,0.208,0.117,0.075,��,8.1,��
2023/09/17,15:30,0.145,0.128,0.213,0.201,0.207,0.117,0.075,��,6.5,��
2023/09/17,15:40,0.146,0.129,0.213,0.203,0.208,0.117,0.075,��,5.3,��
2023/09/17,15:50,0.144,0.128,0.213,0.201,0.207,0.117,0.075,��,6.4,��
2023/09/17,16:00,0.146,0.128,0.213,0.200,0.208,0.117,0.074,��쓌,6.5,��
2023/09/17,16:10,0.144,0.128,0.212,0.201,0.209,0.117,0.075,��,6.3,��
2023/09/17,16:20,0.144,0.129,0.214,0.201,0.208,0.116,0.074,��,5.6,��
2023/09/17,16:30,0.145,0.128,0.211,0.201,0.206,0.116,0.074,��,5.0,��
2023/09/17,16:40,0.144,0.127,0.212,0.201,0.208,0.116,0.074,��쓌,5.8,��
2023/09/17,16:50,0.145,0.128,0.214,0.203,0.207,0.116,0.075,��쓌,5.5,��
2023/09/17,17:00,0.143,0.128,0.217,0.205,0.207,0.117,0.075,��,5.2,��
2023/09/17,17:10,0.144,0.128,0.215,0.203,0.207,0.116,0.075,��,6.0,��
2023/09/17,17:20,0.145,0.128,0.214,0.202,0.208,0.117,0.075,��쓌,5.4,��
2023/09/17,17:30,0.147,0.129,0.213,0.201,0.205,0.117,0.074,��,5.5,��
2023/09/17,17:40,0.146,0.129,0.212,0.202,0.207,0.118,0.075,��,4.8,��
2023/09/17,17:50,0.146,0.128,0.216,0.204,0.211,0.117,0.074,��,5.2,��
2023/09/17,18:00,0.145,0.128,0.216,0.205,0.209,0.117,0.075,��,5.4,��
2023/09/17,18:10,0.144,0.127,0.214,0.202,0.207,0.117,0.075,��,5.3,��
2023/09/17,18:20,0.146,0.129,0.213,0.202,0.206,0.117,0.075,��,5.2,��
2023/09/17,18:30,0.147,0.129,0.213,0.202,0.206,0.117,0.074,��,4.8,��
2023/09/17,18:40,0.146,0.128,0.216,0.205,0.210,0.118,0.074,��,4.9,��
2023/09/17,18:50,0.144,0.128,0.216,0.203,0.210,0.117,0.075,��,3.9,��
2023/09/17,19:00,0.144,0.129,0.215,0.202,0.208,0.116,0.075,��,4.2,��
2023/09/17,19:10,0.147,0.129,0.213,0.201,0.207,0.117,0.075,��,4.1,��
2023/09/17,19:20,0.146,0.128,0.217,0.203,0.206,0.117,0.075,��,4.0,��
2023/09/17,19:30,0.145,0.128,0.216,0.205,0.209,0.118,0.074,��,3.2,��
2023/09/17,19:40,0.144,0.129,0.214,0.203,0.209,0.117,0.075,��,3.1,��
2023/09/17,19:50,0.144,0.130,0.213,0.202,0.208,0.117,0.076,��,3.5,��
2023/09/17,20:00,0.147,0.129,0.216,0.203,0.207,0.117,0.075,��,3.5,��
2023/09/17,20:10,0.146,0.128,0.216,0.206,0.209,0.118,0.074,��쓌,3.4,��
2023/09/17,20:20,0.145,0.129,0.214,0.203,0.210,0.118,0.074,��쓌,3.3,��
2023/09/17,20:30,0.144,0.130,0.213,0.202,0.208,0.117,0.075,��,4.1,��
2023/09/17,20:40,0.147,0.129,0.215,0.202,0.206,0.117,0.075,��,4.4,��
2023/09/17,20:50,0.147,0.128,0.216,0.204,0.210,0.117,0.074,��,4.1,��
2023/09/17,21:00,0.145,0.129,0.214,0.203,0.209,0.117,0.075,��,4.4,��
2023/09/17,21:10,0.144,0.130,0.213,0.201,0.208,0.117,0.076,��,4.9,��
2023/09/17,21:20,0.146,0.128,0.217,0.203,0.207,0.117,0.075,��,5.1,��
2023/09/17,21:30,0.147,0.128,0.215,0.204,0.208,0.117,0.075,��,4.9,��
2023/09/17,21:40,0.145,0.130,0.214,0.205,0.211,0.118,0.075,��,5.5,��
2023/09/17,21:50,0.145,0.130,0.214,0.202,0.208,0.118,0.076,��,6.3,��
2023/09/17,22:00,0.147,0.128,0.217,0.203,0.207,0.117,0.075,��,5.4,��
2023/09/17,22:10,0.147,0.128,0.216,0.205,0.206,0.117,0.075,��,5.4,��
2023/09/17,22:20,0.147,0.130,0.214,0.202,0.212,0.117,0.076,��,5.8,��
2023/09/17,22:30,0.144,0.129,0.214,0.203,0.210,0.119,0.076,��,4.8,��
2023/09/17,22:40,0.148,0.128,0.217,0.203,0.207,0.118,0.075,��,5.2,��
2023/09/17,22:50,0.147,0.129,0.214,0.205,0.208,0.117,0.076,��,6.0,��
2023/09/17,23:00,0.146,0.130,0.213,0.203,0.210,0.118,0.075,��,5.7,��
2023/09/17,23:10,0.146,0.129,0.216,0.201,0.210,0.119,0.076,��,4.6,��
2023/09/17,23:20,0.147,0.130,0.215,0.204,0.207,0.117,0.076,��,4.4,��
2023/09/17,23:30,0.146,0.129,0.213,0.205,0.208,0.117,0.075,��쐼,4.6,��
2023/09/17,23:40,0.145,0.129,0.215,0.203,0.211,0.118,0.076,��쐼,5.3,��
2023/09/17,23:50,0.145,0.129,0.216,0.203,0.209,0.118,0.076,��쐼,4.3,��
